CZ-6A DEB, 54413

Orbit data source: Space-Track

CZ-6A DEB, 54413 is space debris in SSO originally from a launch on Fri, 11 Nov 2022 UTC launched from the Taiyaun Space Center, China (TSC). Debris objects in space refer to the collection of defunct objects orbiting the Earth. Examples of debris include non-operational satellites, rocket bodies, and fragments generated from explosions, collisions, or faulty payload assembly.

Loading next visibility...
Identifier
54413, 2022-151EM
Orbit
SSO
Country
Flag of CNCN / PRC
Related business
Manufacturer
SAST
Mission
Spacecraft
Bus & Motor
Unknown
Mass
Unknown
Launch date (UTC)
2022-11-11 (4 years ago)
Launch vehicle
Unknown
Launch site
Taiyaun Space Center, China (TSC)
Object type
Payload
Rocket body
Debris
Shape & HBR
Unknown shape, 0.1 m
Radar Cross Section
Medium (>0.1 m² and <1 m²)

Expand to show TLE details & history
Last TLE update: 14 hours ago

TLE from 14 hours ago
0 CZ-6A DEB
1 54413U 22151EM  26236.46119846  .00057828  00000-0  19399-2 0  9999
2 54413  98.8289  49.0251 0054424 166.4462 193.8251 15.29238976204649
Epoch: 2026-08-24T11:04Z
TLE epoch observation values (Epoch: 2026-08-24T11:04:07.546Z)
Latitude
0.00001°
Longitude
-89.74891°
Altitude
517.397 km
Speed
7.585 km/s
True Right ascension
03h 16m 06s
True Declination
0° 00' 00"
Sunlit
Object was in daylight at epoch
Visualization orbit readout
Latitude
Unknown
Longitude
Unknown
Altitude
Unknown
Speed
Unknown
Apparent Right ascension
Unknown
Apparent Declination
Unknown
Sunlit
N/A
Visualization observer readout
Local Sidereal Time
16:39:47
Azimuth
Unknown
Elevation
Unknown
Doppler factor
Unknown
Orbital elements
Apogee altitude
512.404 km
Perigee altitude
437.808 km
Semi-major axis
6,853.243 km
Eccentricity
0.00544
Inclination
98.8289°
RAAN
49.0251°
Arg. of periapsis
166.4462°
True anomaly
193.67705°
Mean anomaly
193.8251°
Eccentric anomaly
193.75098°
Mean motion
3.82559 °/min
Orbital period
94.1 mins
BSTAR
0.0019399
Loading maneuver chart data...
Computing Atmospheric mass density...
Loading historical data...
Loading historical data...
Loading historical data...
Loading historical data...
Loading historical data...
Loading historical data...
Loading historical data...

Documentation

Showing up to 5 results
|